Overview Statistics Trail Chart Weather Telemetry Raw packets
 

This is the latest recevied weather packets stored in our database for station/object KH6DH-13. If no packets are shown the sender has not sent any weather packets the latest 10 day(s).

<< 7 8 9 10 11 12 13 >>
Time Temp. Humidity Pressure Rain* Wind** Luminosity Snow
1788546501 25° C - - 0 mm 0.89 m/s, 349° - -
1788545900 25° C - - 0 mm 0.89 m/s, 77° - -
1788545299 25° C - - 0 mm 1.79 m/s, 31° - -
1788544698 25° C - - 0 mm 0 m/s - -
1788544097 25° C - - 0 mm 0.45 m/s, 45° - -
1788543496 25° C - - 0 mm 0.89 m/s, 37° - -
1788542895 24.44° C - - 0 mm 2.68 m/s, 132° - -
1788542294 24.44° C - - 0 mm 1.34 m/s, 14° - -
1788541693 24.44° C - - 0 mm 0.45 m/s, 30° - -
1788541092 24.44° C - - 0 mm 2.24 m/s, 23° - -
1788540491 23.89° C - - 0 mm 0.89 m/s, 65° - -
1788539890 23.89° C - - 0 mm 1.34 m/s, 31° - -
1788539289 23.89° C - - 0.51 mm 1.34 m/s, 18° - -
1788538688 23.89° C - - 0.51 mm 1.79 m/s, 77° - -
1788538087 23.89° C - - 0.51 mm 1.79 m/s, 13° - -
1788537486 23.89° C - - 0.51 mm 2.68 m/s, 55° - -
1788536885 23.33° C - - 0.51 mm 1.34 m/s, 62° - -
1788536284 23.89° C - - 0.51 mm 2.24 m/s, 134° - -
1788535683 23.89° C - - 0 mm 1.34 m/s, 18° - -
1788535082 23.89° C - - 0 mm 2.24 m/s, 73° - -
1788534481 23.89° C - - 0 mm 2.24 m/s, 48° - -
1788533880 24.44° C - - 0 mm 2.68 m/s, 94° - -
1788533279 24.44° C - - 0 mm 0.45 m/s, 356° - -
1788532678 24.44° C - - 0 mm 0.45 m/s, 288° - -
1788532077 24.44° C - - 0 mm 2.24 m/s, 98° - -

* Rain latest hour (hover to see other rain measurements)
** Current wind speed in m/s (hover to see current wind gust speed)